CZ-3C DEB, 40171

Orbit data source: Space-Track

CZ-3C DEB, 40171 is space debris originally from a launch on Sun, 31 Oct 2010 UTC launched from the Xichang Space Center, China (XSC). Debris objects in space refer to the collection of defunct objects orbiting the Earth. Examples of debris include non-operational satellites, rocket bodies, and fragments generated from explosions, collisions, or faulty payload assembly.

Not visible in the next 10 days
Identifier
40171, 2010-057Z
Orbit
Active
Country
Flag of CNCN / PRC
Related business
Manufacturer
CALT
Mission
Spacecraft
Bus & Motor
Unknown
Mass
Unknown
Launch date (UTC)
2010-10-31 (15 years ago)
Launch vehicle
Unknown
Launch site
Xichang Space Center, China (XSC)
Object type
Payload
Rocket body
Debris
Shape & HBR
Unknown shape, 0.3 m
Radar Cross Section
Medium (>0.1 m² and <1 m²)

Expand to show TLE details & history
Last TLE update: 16 hours ago

TLE from 16 hours ago
0 CZ-3C DEB
1 40171U 10057Z   25348.13737800  .00096201  00000-0  12888-1 0  9993
2 40171  21.8651 315.8559 4115011  87.6200 317.5891  7.15438919199549
Epoch: 2025-12-14T03:17Z
TLE epoch observation values (Epoch: 2025-12-14T03:17:49.459Z)
Latitude
-0.00001°
Longitude
-176.65481°
Altitude
2,909.219 km
Speed
7.128 km/s
True Right ascension
21h 03m 25s
True Declination
0° 00' 00"
Sunlit
Object was in daylight at epoch
Visualization orbit readout
Latitude
Unknown
Longitude
Unknown
Altitude
Unknown
Speed
Unknown
Apparent Right ascension
Unknown
Apparent Declination
Unknown
Sunlit
N/A
Visualization observer readout
Local Sidereal Time
18:10:34
Azimuth
Unknown
Elevation
Unknown
Doppler factor
Unknown
Orbital elements
Apogee altitude
9,685.956 km
Perigee altitude
319.485 km
Semi-major axis
11,380.858 km
Eccentricity
0.4115
Inclination
21.8651°
RAAN
315.8559°
Arg. of periapsis
87.62°
True anomaly
272.42076°
Mean anomaly
317.5891°
Eccentric anomaly
296.48651°
Mean motion
1.78764 °/min
Orbital period
201.38 mins
BSTAR
0.012888
Loading maneuver chart data...
Computing Atmospheric mass density...
Loading historical data...
Loading historical data...
Loading historical data...
Loading historical data...
Loading historical data...
Loading historical data...
Loading historical data...

Documentation

Showing up to 5 results
|